カタログに戻る

STARLINK-30828

運用中通信VLEO
NORAD 58671·PAYLOAD·🇺🇸 United States

打ち上げ Dec 29, 2023 から Cape Canaveral Space Force Station

Loading…

次のパス (今後24時間)

TLE

最新Source: CelesTrak SupGP

元期: Sep 14, 2026, 21:05 UTC

1 58671C 23211E   26257.87895833 -.00003138  00000+0 -11368-3 0  2574
2 58671  42.9993  96.8944 0001389 265.7249 251.4919 15.27570629    17

AllMySatでSTARLINK-30828をリアルタイム追跡

Download on the App Store